Home > Weather > Bairnsdale > Past weeks

Flag for Australia Past Weather in Bairnsdale, Victoria, Australia — Yesterday and Last 2 Weeks

Now
50 °F

Cool.


Feels Like: 50 °F
Forecast: 43 / 61 °F
Wind: 3 mph from North

Location: Bairnsdale Airport

Current Time: Jul 30, 2016 at 7:25:24 PM

Latest Report: Jul 30, 2016 at 6:00 PM


Visibility: N/A

Pressure: 29.98 "Hg

Humidity: 78%

Dew Point: 44 °F

Location of BairnsdaleLocation

Past Weather in Bairnsdale — Graph

°F

Bairnsdale Temperature Yesterday

Maximum temperature yesterday: 62 °F (at 2:00 PM)
Minimum temperature yesterday: 46 °F (at 2:00 AM)
Average temperature yesterday: 52 °F

High & Low Weather Summary for the Past Weeks

 TemperatureHumidityPressure
High69 °F (Jul 18, 12:00 PM)100% (Jul 21, 9:00 AM)30.53 "Hg (Jul 21, 9:00 AM)
Low28 °F (Jul 17, 6:00 AM)40% (Jul 18, 11:00 AM)29.26 "Hg (Jul 23, 2:00 AM)
Average49 °F74%29.98 "Hg
* Reported Jul 15 6:00 PM — Jul 30 6:00 PM, Bairnsdale, Weather by CustomWeather, © 2016

Note: Actual official high and low records may vary slightly from our data, if they occured in-between our weather recording intervals... More about our weather records

Advertising

Bairnsdale Weather History for the Previous 24 Hours

Scroll right to see more
 ConditionsComfort  
Time TempWeatherWind HumidityBarometerVisibility
6:00 PM
Sat, Jul 30
50 °FCool.3 mph78%29.98 "HgN/A
5:00 PM55 °FCool.7 mph67%29.98 "HgN/A
3:00 PM64 °FMild.9 mph47%30.02 "HgN/A
2:00 PM63 °FMild.9 mph44%30.03 "HgN/A
12:00 PM60 °FRefreshingly cool.5 mph53%30.11 "HgN/A
11:00 AM58 °FRefreshingly cool.6 mph59%30.15 "HgN/A
9:00 AM50 °FPassing clouds.6 mph79%30.18 "HgN/A
8:00 AM46 °FCool.6 mph89%30.19 "HgN/A
6:00 AM44 °FOvercast.2 mph89%30.16 "HgN/A
5:00 AM43 °FQuite cool.7 mph85%30.15 "HgN/A
3:00 AM43 °FPassing clouds.8 mph91%30.14 "HgN/A
2:00 AM45 °FQuite cool.7 mph87%30.15 "HgN/A
12:00 AM47 °FCool.7 mph87%30.15 "HgN/A
11:00 PM
Fri, Jul 29
46 °FCool.6 mph88%30.15 "HgN/A
9:00 PM53 °FOvercast.14 mph80%30.13 "HgN/A
8:00 PM53 °FCool.9 mph84%30.12 "HgN/A
Weather by CustomWeather, © 2016

See weather overviewHow to use our weather pages